Maksim Ismayilov

Chief Scout - AZAL
12 May 2028
Friday
Process

Personality

Adaptability (6) Ambition (18) Controversy (11) Loyalty (16) Pressure (13) Professionalism (9) Sportsmanship (11) Temperament (14)

Profile

Coaching Style Democratic
License Continental C
Determination 3
Man Management 2
Motivating 2
Discipline 7
Job Satisfaction
100%
Fatigue
0%
Role Chief Scout
Wage 27.5K p/w
Contract 14.03.2029

Performance

Behaviour Good
Training Effectiveness
26%
Player Development
35%
Injury Prevention
15%
Tactical Implementation
20%

Currently Monitoring

86
Player Club Status Ability Confidence Watched Last Observed Latest Vote
Süleyman Damadayev Gabala Active 86 / 89 55% 1 07.01.2028 -
David Veliz Güemes Active 110 / 121 40% 1 05.01.2028 -
Franco Malagueño Colegiales Active 94 / 100 40% 1 05.01.2028 -
Matías Viguet Maipú Active 103 / 121 40% 1 04.01.2028 -
Ilja Ivarlak Spartaks Active 68 / 75 66% 1 01.01.2028 Approve
Ilya Tishurov Osipovichi Active 73 / 95 40% 1 31.08.2027 -
Alejandro Melo Temperley Active 118 / 114 40% 1 31.08.2027 -
Lisandro Cabrera Maipú Active 101 / 133 40% 2 30.08.2027 -
José Rondón Zulia Active 82 / 104 40% 2 30.08.2027 -
Luciano Peraggini Maipú Active 92 / 121 40% 1 29.08.2027 -
Aleksandar Lyubenov Dobrudzha Active 85 / 81 40% 1 29.08.2027 -
Abdoulaye Mahamat US Moursal Active 63 / 83 40% 1 28.08.2027 -
Abubakar Bonni Enyimba Active 73 / 107 40% 1 28.08.2027 -
Joshua Oluwayemi Newport County Active 108 / 117 40% 1 28.08.2027 -
Efraín Ustariz Beroe Active 116 / 102 40% 1 28.08.2027 -
Renato Solís Estudiantes Active 120 / 133 40% 2 27.08.2027 -
Gustavo Calderari Colegiales Active 101 / 114 40% 1 27.08.2027 -
Marcelo Miño Ferro Carril Oeste Active 108 / 129 40% 1 25.08.2027 -
Alexis Domínguez Chacarita Juniors Active 125 / 125 40% 1 25.08.2027 -
Facundo Castelli Estudiantes Active 102 / 99 40% 1 24.08.2027 -
Sergey Volkov Rodina Active 95 / 125 40% 2 23.08.2027 -
Laureano Martínez Talleres Active 112 / 94 40% 1 21.08.2027 -
Galin Grigorov Septemvri Active 113 / 124 40% 1 21.08.2027 -
Cameron Dawson Bradford City Active 111 / 91 40% 1 20.08.2027 -
Joaquín Bigo Gimnasia La Plata Active 116 / 120 40% 1 19.08.2027 -
Carlos Guerreño Minsk Active 96 / 97 40% 1 19.08.2027 -
Esteban da Silva Racing Active 131 / 125 40% 1 18.08.2027 -
Franco Rivasseau Patronato Active 118 / 89 40% 1 17.08.2027 -
Facundo Altamirano San Lorenzo Active 117 / 112 40% 1 14.08.2027 -
Marius Adamonis Neftchi Active 124 / 123 40% 5 12.08.2027 -
Emilio Di Fulvio Colegiales Active 124 / 101 40% 1 12.08.2027 -
Enzo González Defensores Active 114 / 90 40% 1 12.08.2027 -
Lautaro Gordillo Colegiales Active 109 / 101 40% 2 11.08.2027 -
Lucas Pedraza Defensores Unidos Active 104 / 117 40% 1 10.08.2027 -
Leonardo Bellini Pianese Active 102 / 116 40% 1 10.08.2027 -
Lévi Ntumba Slavia Sofia Active 119 / 123 40% 1 08.08.2027 -
Juan Pablo Noce Burgos Active 103 / 128 40% 2 07.08.2027 -
Italo Espinoza San Martín Active 105 / 121 40% 1 06.08.2027 -
José Miers 12 de Octubre Active 85 / 102 40% 1 05.08.2027 -
Maxim Belov Dinamo Brest Active 90 / 118 40% 1 03.08.2027 -
Álvaro Montero Boca Juniors Active 139 / 112 40% 1 03.08.2027 -
Salim Hashimov Zira Active 69 / 85 55% 1 02.08.2027 -
Charlie Brown Accrington Stanley Active 75 / 90 40% 1 02.08.2027 -
Agustín Lastra Newell's Old Boys Active 118 / 96 40% 1 01.08.2027 -
Pedro López Ceuta Active 100 / 92 40% 1 01.08.2027 -
Tomás Bolzicco Chaco For Ever Active 106 / 107 40% 1 31.07.2027 -
Lucas Bonelli Felgueiras Active 123 / 94 40% 1 29.07.2027 -
Ignacio Chicco Aldosivi Active 141 / 130 40% 1 26.07.2027 -
Johan Portilla Torpedo Moscow Active 91 / 103 40% 1 24.07.2027 -
Afran Sadygov Inter Active 96 / 98 40% 3 23.07.2027 -
Saliou Guindo MC Oran Active 82 / 101 40% 1 23.07.2027 -
Neneca Santa Clara Active 88 / 127 40% 1 20.07.2027 -
Beryly Lubala Vicenza Active 90 / 123 40% 1 20.07.2027 -
Destiny Efosa Egharevba Picerno Active 88 / 114 40% 1 17.07.2027 -
Kabiru Abdullahi Northampton Town Active 78 / 110 40% 1 16.07.2027 -
Chinedu Onyinjekwu Bayelsa United Active 81 / 86 40% 1 16.07.2027 -
Pedro González Cerro Largo Active 124 / 106 40% 1 15.07.2027 -
Sheldon Dinesh Stockport County Active 112 / 125 40% 1 14.07.2027 -
Kənan Feyziyev Sumgayit Active 81 / 65 51% 1 12.07.2027 -
Bogdan Ovsyannikov Orenburg Active 107 / 128 40% 1 11.07.2027 -
Danil Karpov Chernomorets Active 86 / 107 40% 1 08.07.2027 -
Ilja Gruznov Khimik Active 74 / 103 40% 1 06.07.2027 -
Petr Kudakovskiy Shinnik Active 96 / 92 40% 1 04.07.2027 -
Nikita Chagrov Rotor Active 118 / 84 40% 3 03.07.2027 -
Aydın Bayramov Zira Active 88 / 114 40% 1 03.07.2027 -
Nahuel Yzaurralde Quilmes Active 92 / 118 40% 3 29.06.2027 -
Alexandr Degtev Sochi Active 89 / 113 40% 1 25.06.2027 -
Daniil Frolkin Fakel Active 127 / 110 40% 1 24.06.2027 -
Kenan Pirić Neftchi Active 116 / 97 40% 1 24.06.2027 -
Nicholas Ammeter Arouca Active 97 / 121 40% 1 22.06.2027 -
Alexey Kuznetsov Leningradets Active 110 / 112 40% 2 21.06.2027 -
Petr Kosarevskiy Sibir Active 111 / 108 40% 1 20.06.2027 -
Javier Vallejos Central Córdoba SdE Active 87 / 121 40% 1 19.06.2027 -
Daniel Bachmann Watford Active 103 / 120 40% 2 18.06.2027 -
Vitaly Gudiev Akron Active 117 / 112 40% 1 14.06.2027 -
Fabricio Hass Gijón Active 93 / 106 40% 1 09.06.2027 -
Igor Gorbunov Arsenal Tula Active 106 / 77 40% 1 31.01.2027 -
Đorđe Pantelić Spartak Kostroma Active 118 / 86 40% 2 30.01.2027 -
David Karaev KAMAZ Active 94 / 102 40% 1 30.01.2027 -
Géza Dávid Turi Grimsby Town Active 90 / 80 40% 1 28.01.2027 -
Miguel Sousa Leixões Active 111 / 130 40% 1 24.01.2027 -
Ilja Zhigulev Chernomorets Active 102 / 100 40% 1 19.01.2027 -
Brahim Konaté Zira Active 101 / 107 40% 1 11.01.2027 -
Islam Imamov SKA Khabarovsk Active 100 / 75 40% 1 01.01.2027 -
Luca Fernández Barracas Central Active 61 / 104 40% 1 24.08.2026 -
Zacarías López Iquique Active 83 / 83 40% 1 01.08.2026 -